| time (UTC) | temp F | wind direction | speed MPH | gust MPH | rain 1hr in | rain 24hr in | rain mn in | humidity % | barometer mb |
| 20260902124502 | 60 | 203 | 6.0 | 7.0 | 0.00 | 0.00 | 0.00 | 79 | 1007.9 |
| 20260902123001 | 60 | 226 | 4.0 | 4.0 | 0.00 | 0.00 | 0.00 | 80 | 1008.0 |
| 20260902122502 | 59 | 215 | 2.0 | 5.0 | 0.00 | 0.00 | 0.00 | 80 | 1008.2 |
| 20260902122001 | 59 | 194 | 2.0 | 5.0 | 0.00 | 0.00 | 0.00 | 80 | 1008.2 |
| 20260902121001 | 59 | 203 | 1.0 | 3.0 | 0.00 | 0.00 | 0.00 | 80 | 1008.4 |
| 20260902120501 | 59 | 180 | 0.0 | 2.0 | 0.00 | 0.00 | 0.00 | 80 | 1008.4 |
| 20260902120002 | 59 | 180 | 1.0 | 2.0 | 0.00 | 0.00 | 0.00 | 80 | 1008.4 |
| 20260902115501 | 59 | 173 | 2.0 | 3.0 | 0.00 | 0.00 | 0.00 | 80 | 1008.6 |
| 20260902114501 | 59 | 136 | 1.0 | 4.0 | 0.00 | 0.00 | 0.00 | 79 | 1008.6 |
| 20260902114001 | 59 | 155 | 2.0 | 3.0 | 0.00 | 0.00 | 0.00 | 79 | 1008.8 |
| 20260902113501 | 60 | 190 | 1.0 | 4.0 | 0.00 | 0.00 | 0.00 | 79 | 1008.8 |
| 20260902113001 | 59 | 205 | 2.0 | 4.0 | 0.00 | 0.00 | 0.00 | 79 | 1008.8 |
| 20260902112501 | 59 | 181 | 2.0 | 4.0 | 0.00 | 0.00 | 0.00 | 79 | 1009.0 |
| 20260902112001 | 59 | 193 | 2.0 | 4.0 | 0.00 | 0.00 | 0.00 | 79 | 1009.0 |
| 20260902111501 | 59 | 144 | 3.0 | 4.0 | 0.00 | 0.00 | 0.00 | 80 | 1009.0 |
| 20260902111001 | 59 | 210 | 3.0 | 4.0 | 0.00 | 0.00 | 0.00 | 80 | 1009.2 |
| 20260902110001 | 59 | 202 | 3.0 | 4.0 | 0.00 | 0.00 | 0.00 | 79 | 1009.2 |
| 20260902105501 | 60 | 203 | 1.0 | 5.0 | 0.00 | 0.00 | 0.00 | 79 | 1009.5 |
| 20260902105001 | 60 | 159 | 2.0 | 5.0 | 0.00 | 0.00 | 0.00 | 78 | 1009.5 |
| 20260902104501 | 60 | 159 | 0.0 | 4.0 | 0.00 | 0.00 | 0.00 | 78 | 1009.5 |
| 20260902104001 | 60 | 160 | 0.0 | 5.0 | 0.00 | 0.00 | 0.00 | 77 | 1009.6 |
| 20260902103500 | 60 | 176 | 1.0 | 5.0 | 0.00 | 0.00 | 0.00 | 77 | 1009.6 |
| 20260902103000 | 60 | 173 | 3.0 | 5.0 | 0.00 | 0.00 | 0.00 | 77 | 1009.6 |
| 20260902102500 | 60 | 211 | 3.0 | 6.0 | 0.00 | 0.00 | 0.00 | 77 | 1009.7 |
| 20260902102000 | 60 | 218 | 3.0 | 7.0 | 0.00 | 0.00 | 0.00 | 78 | 1009.7 |
| 20260902101501 | 60 | 221 | 2.0 | 7.0 | 0.00 | 0.00 | 0.00 | 78 | 1009.7 |
| 20260902101001 | 59 | 200 | 4.0 | 4.0 | 0.00 | 0.00 | 0.00 | 79 | 1009.7 |
| 20260902100500 | 59 | 184 | 1.0 | 3.0 | 0.00 | 0.00 | 0.00 | 79 | 1009.7 |
| 20260902100000 | 59 | 185 | 1.0 | 4.0 | 0.00 | 0.00 | 0.00 | 80 | 1009.7 |
| 20260902095000 | 59 | 157 | 1.0 | 3.0 | 0.00 | 0.00 | 0.00 | 80 | 1009.9 |
| 20260902094501 | 59 | 183 | 1.0 | 3.0 | 0.00 | 0.00 | 0.00 | 80 | 1009.9 |
| 20260902093500 | 59 | 182 | 2.0 | 5.0 | 0.00 | 0.00 | 0.00 | 80 | 1010.0 |
| 20260902093000 | 59 | 161 | 3.0 | 5.0 | 0.00 | 0.00 | 0.00 | 81 | 1010.0 |
| 20260902092500 | 59 | 185 | 2.0 | 4.0 | 0.00 | 0.00 | 0.00 | 80 | 1010.0 |
| 20260902091500 | 59 | 186 | 2.0 | 5.0 | 0.00 | 0.00 | 0.00 | 80 | 1010.0 |
| 20260902091000 | 59 | 189 | 3.0 | 5.0 | 0.00 | 0.00 | 0.00 | 79 | 1010.1 |
| 20260902090500 | 59 | 190 | 1.0 | 4.0 | 0.00 | 0.00 | 0.00 | 79 | 1010.1 |
| 20260902090001 | 60 | 187 | 1.0 | 5.0 | 0.00 | 0.00 | 0.00 | 79 | 1010.1 |
| 20260902085501 | 60 | 201 | 1.0 | 5.0 | 0.00 | 0.00 | 0.00 | 79 | 1010.4 |
| 20260902084500 | 59 | 198 | 0.0 | 4.0 | 0.00 | 0.00 | 0.00 | 79 | 1010.4 |
| 20260902084001 | 59 | 185 | 2.0 | 6.0 | 0.00 | 0.00 | 0.00 | 79 | 1010.4 |
| 20260902083500 | 60 | 199 | 2.0 | 6.0 | 0.00 | 0.00 | 0.00 | 79 | 1010.4 |
| 20260902082500 | 60 | 182 | 0.0 | 2.0 | 0.00 | 0.00 | 0.00 | 80 | 1010.5 |
| 20260902081500 | 60 | 215 | 2.0 | 5.0 | 0.00 | 0.00 | 0.00 | 80 | 1010.5 |
| 20260902081000 | 59 | 192 | 2.0 | 6.0 | 0.00 | 0.00 | 0.00 | 80 | 1010.5 |
| 20260902080500 | 59 | 206 | 1.0 | 6.0 | 0.00 | 0.00 | 0.00 | 81 | 1010.5 |
| 20260902080000 | 59 | 199 | 3.0 | 3.0 | 0.00 | 0.00 | 0.00 | 82 | 1010.5 |
| 20260902075500 | 59 | 209 | 0.0 | 2.0 | 0.00 | 0.00 | 0.00 | 82 | 1010.6 |
| 20260902074500 | 59 | 199 | 0.0 | 3.0 | 0.00 | 0.00 | 0.00 | 84 | 1010.6 |
| 20260902074000 | 59 | 198 | 0.0 | 3.0 | 0.00 | 0.00 | 0.00 | 84 | 1010.8 |
| 20260902072500 | 59 | 196 | 0.0 | 0.0 | 0.00 | 0.00 | 0.00 | 83 | 1010.9 |
| 20260902071459 | 59 | 196 | 0.0 | 1.0 | 0.00 | 0.00 | 0.00 | 83 | 1010.9 |
| 20260902070500 | 60 | 196 | 1.0 | 6.0 | 0.00 | 0.00 | 0.00 | 82 | 1010.9 |
| 20260902065959 | 60 | 207 | 3.0 | 6.0 | 0.00 | 0.00 | 0.00 | 82 | 1010.9 |
| 20260902065459 | 60 | 188 | 1.0 | 5.0 | 0.00 | 0.00 | 0.00 | 82 | 1011.0 |
| 20260902064959 | 60 | 214 | 2.0 | 5.0 | 0.00 | 0.00 | 0.00 | 82 | 1011.0 |
| 20260902064459 | 60 | 220 | 3.0 | 5.0 | 0.00 | 0.00 | 0.00 | 82 | 1011.0 |
| 20260902063959 | 60 | 214 | 2.0 | 5.0 | 0.00 | 0.00 | 0.00 | 82 | 1011.1 |
| 20260902063459 | 60 | 196 | 2.0 | 6.0 | 0.00 | 0.00 | 0.00 | 82 | 1011.1 |
| 20260902062959 | 60 | 211 | 3.0 | 6.0 | 0.00 | 0.00 | 0.00 | 82 | 1011.1 |
| 20260902062459 | 60 | 189 | 4.0 | 5.0 | 0.00 | 0.00 | 0.00 | 82 | 1011.1 |
| 20260902061959 | 60 | 229 | 3.0 | 5.0 | 0.00 | 0.00 | 0.00 | 82 | 1011.1 |
| 20260902060959 | 60 | 207 | 2.0 | 5.0 | 0.00 | 0.00 | 0.00 | 82 | 1011.3 |
| 20260902060459 | 60 | 47 | 0.0 | 5.0 | 0.00 | 0.00 | 0.00 | 81 | 1011.3 |
| 20260902055959 | 61 | 212 | 3.0 | 5.0 | 0.00 | 0.00 | 0.00 | 81 | 1011.3 |
| 20260902055459 | 61 | 223 | 1.0 | 6.0 | 0.00 | 0.00 | 0.00 | 81 | 1011.5 |
| 20260902054959 | 61 | 202 | 1.0 | 6.0 | 0.00 | 0.00 | 0.00 | 79 | 1011.5 |
| 20260902054459 | 61 | 207 | 4.0 | 7.0 | 0.00 | 0.00 | 0.00 | 79 | 1011.5 |
| 20260902053459 | 61 | 211 | 4.0 | 6.0 | 0.00 | 0.00 | 0.00 | 78 | 1011.5 |
| 20260902052959 | 62 | 211 | 0.0 | 7.0 | 0.00 | 0.00 | 0.00 | 78 | 1011.6 |
| 20260902052459 | 62 | 265 | 4.0 | 7.0 | 0.00 | 0.00 | 0.00 | 78 | 1011.6 |
| 20260902051958 | 62 | 206 | 3.0 | 10.0 | 0.00 | 0.00 | 0.00 | 78 | 1011.6 |
| 20260902051458 | 62 | 214 | 3.0 | 10.0 | 0.00 | 0.00 | 0.00 | 78 | 1011.6 |
| 20260902050958 | 62 | 217 | 8.0 | 8.0 | 0.00 | 0.00 | 0.00 | 77 | 1011.6 |
| 20260902045959 | 61 | 190 | 5.0 | 6.0 | 0.00 | 0.00 | 0.00 | 77 | 1011.5 |
| 20260902045459 | 61 | 188 | 0.0 | 0.0 | 0.00 | 0.00 | 0.00 | 77 | 1011.6 |
| 20260902044959 | 61 | 188 | 0.0 | 0.0 | 0.00 | 0.00 | 0.00 | 77 | 1011.6 |
| 20260902043958 | 61 | 188 | 0.0 | 3.0 | 0.00 | 0.00 | 0.00 | 77 | 1011.5 |
| 20260902043458 | 61 | 188 | 2.0 | 5.0 | 0.00 | 0.00 | 0.00 | 77 | 1011.5 |
| 20260902042958 | 62 | 183 | 0.0 | 5.0 | 0.00 | 0.00 | 0.00 | 76 | 1011.6 |
| 20260902042458 | 62 | 190 | 2.0 | 4.0 | 0.00 | 0.00 | 0.00 | 76 | 1011.7 |
| 20260902040958 | 62 | 211 | 1.0 | 3.0 | 0.00 | 0.00 | 0.00 | 75 | 1011.6 |
| 20260902040458 | 62 | 210 | 0.0 | 3.0 | 0.00 | 0.00 | 0.00 | 75 | 1011.6 |
| 20260902035958 | 62 | 211 | 2.0 | 3.0 | 0.00 | 0.00 | 0.00 | 74 | 1011.6 |
| 20260902035458 | 62 | 256 | 0.0 | 0.0 | 0.00 | 0.00 | 0.00 | 74 | 1011.5 |
| 20260902034458 | 62 | 257 | 0.0 | 0.0 | 0.00 | 0.00 | 0.00 | 73 | 1011.5 |
| 20260902033958 | 62 | 257 | 0.0 | 0.0 | 0.00 | 0.00 | 0.00 | 72 | 1011.5 |
| 20260902033458 | 63 | 257 | 0.0 | 0.0 | 0.00 | 0.00 | 0.00 | 72 | 1011.5 |
| 20260902032958 | 63 | 257 | 0.0 | 0.0 | 0.00 | 0.00 | 0.00 | 72 | 1011.5 |
| 20260902032458 | 63 | 257 | 0.0 | 0.0 | 0.00 | 0.00 | 0.00 | 72 | 1011.4 |
| 20260902031958 | 63 | 260 | 0.0 | 0.0 | 0.00 | 0.00 | 0.00 | 71 | 1011.4 |
| 20260902031458 | 63 | 261 | 0.0 | 1.0 | 0.00 | 0.00 | 0.00 | 71 | 1011.4 |
| 20260902030957 | 63 | 262 | 0.0 | 2.0 | 0.00 | 0.00 | 0.00 | 70 | 1011.5 |
| 20260902030457 | 63 | 262 | 1.0 | 3.0 | 0.00 | 0.00 | 0.00 | 70 | 1011.5 |
| 20260902025957 | 63 | 232 | 0.0 | 3.0 | 0.00 | 0.00 | 0.00 | 70 | 1011.5 |
| 20260902025457 | 64 | 13 | 1.0 | 3.0 | 0.00 | 0.00 | 0.00 | 69 | 1011.6 |
| 20260902024958 | 64 | 337 | 1.0 | 3.0 | 0.00 | 0.00 | 0.00 | 69 | 1011.6 |
| 20260902023958 | 64 | 275 | 2.0 | 4.0 | 0.00 | 0.00 | 0.00 | 68 | 1011.4 |
| 20260902023458 | 64 | 344 | 2.0 | 4.0 | 0.00 | 0.00 | 0.00 | 67 | 1011.4 |
| 20260902022957 | 65 | 329 | 1.0 | 3.0 | 0.00 | 0.00 | 0.00 | 67 | 1011.4 |
| 20260902022457 | 65 | 5 | 1.0 | 3.0 | 0.00 | 0.00 | 0.00 | 66 | 1011.3 |
| 20260902021957 | 65 | 313 | 2.0 | 3.0 | 0.00 | 0.00 | 0.00 | 66 | 1011.3 |
| 20260902021457 | 65 | 19 | 1.0 | 5.0 | 0.00 | 0.00 | 0.00 | 66 | 1011.3 |
| 20260902020957 | 65 | 303 | 2.0 | 5.0 | 0.00 | 0.00 | 0.00 | 66 | 1011.4 |
| 20260902020457 | 65 | 221 | 5.0 | 6.0 | 0.00 | 0.00 | 0.00 | 65 | 1011.4 |
| 20260902015957 | 66 | 122 | 2.0 | 7.0 | 0.00 | 0.00 | 0.00 | 65 | 1011.4 |
| 20260902015457 | 66 | 360 | 2.0 | 7.0 | 0.00 | 0.00 | 0.00 | 64 | 1011.2 |
| 20260902014957 | 66 | 360 | 0.0 | 6.0 | 0.00 | 0.00 | 0.00 | 64 | 1011.2 |
| 20260902014457 | 66 | 360 | 1.0 | 5.0 | 0.00 | 0.00 | 0.00 | 63 | 1011.2 |
| 20260902013957 | 66 | 360 | 1.0 | 5.0 | 0.00 | 0.00 | 0.00 | 64 | 1011.1 |
| 20260902013457 | 66 | 360 | 2.0 | 5.0 | 0.00 | 0.00 | 0.00 | 65 | 1011.1 |
| 20260902012957 | 66 | 360 | 2.0 | 3.0 | 0.00 | 0.00 | 0.00 | 65 | 1011.1 |
| 20260902012457 | 66 | 360 | 1.0 | 3.0 | 0.00 | 0.00 | 0.00 | 66 | 1011.2 |
| 20260902011957 | 66 | 360 | 0.0 | 4.0 | 0.00 | 0.00 | 0.00 | 66 | 1011.2 |
| 20260902011457 | 65 | 360 | 2.0 | 4.0 | 0.00 | 0.00 | 0.00 | 66 | 1011.2 |
| 20260902010957 | 66 | 360 | 2.0 | 4.0 | 0.00 | 0.00 | 0.00 | 66 | 1011.1 |
| 20260902010457 | 66 | 360 | 2.0 | 4.0 | 0.00 | 0.00 | 0.00 | 66 | 1011.1 |
| 20260902005957 | 66 | 360 | 3.0 | 6.0 | 0.00 | 0.00 | 0.00 | 66 | 1011.1 |
| 20260902005457 | 66 | 360 | 0.0 | 6.0 | 0.00 | 0.00 | 0.00 | 66 | 1011.1 |
| 20260902004457 | 65 | 360 | 0.0 | 5.0 | 0.00 | 0.00 | 0.00 | 68 | 1011.1 |
| 20260902003957 | 65 | 360 | 3.0 | 5.0 | 0.00 | 0.00 | 0.00 | 68 | 1011.2 |
| 20260902003456 | 65 | 360 | 3.0 | 4.0 | 0.00 | 0.00 | 0.00 | 68 | 1011.2 |
| 20260902002956 | 65 | 167 | 1.0 | 4.0 | 0.00 | 0.00 | 0.00 | 69 | 1011.2 |
| 20260902002456 | 65 | 192 | 2.0 | 4.0 | 0.00 | 0.00 | 0.00 | 68 | 1011.2 |
| 20260902001957 | 65 | 355 | 2.0 | 8.0 | 0.00 | 0.00 | 0.00 | 68 | 1011.2 |
| 20260902001457 | 65 | 90 | 1.0 | 8.0 | 0.00 | 0.00 | 0.00 | 68 | 1011.2 |
| 20260902000957 | 65 | 334 | 0.0 | 6.0 | 0.00 | 0.00 | 0.00 | 68 | 1011.1 |
| 20260902000458 | 65 | 36 | 2.0 | 6.0 | 0.00 | 0.00 | 0.00 | 69 | 1011.1 |
| 20260901235957 | 65 | 171 | 1.0 | 4.0 | 0.00 | 0.00 | 0.00 | 70 | 1011.1 |
| 20260901234956 | 65 | 165 | 2.0 | 4.0 | 0.00 | 0.00 | 0.00 | 69 | 1011.0 |
| 20260901234456 | 65 | 331 | 0.0 | 3.0 | 0.00 | 0.00 | 0.00 | 69 | 1011.0 |
| 20260901233957 | 65 | 355 | 2.0 | 5.0 | 0.00 | 0.00 | 0.00 | 68 | 1011.1 |
| 20260901233457 | 65 | 224 | 2.0 | 5.0 | 0.00 | 0.00 | 0.00 | 68 | 1011.1 |
| 20260901232956 | 66 | 144 | 2.0 | 4.0 | 0.00 | 0.00 | 0.00 | 67 | 1011.1 |
| 20260901232456 | 66 | 336 | 2.0 | 6.0 | 0.00 | 0.00 | 0.00 | 66 | 1011.0 |
| 20260901231956 | 66 | 174 | 2.0 | 6.0 | 0.00 | 0.00 | 0.00 | 65 | 1011.0 |
| 20260901231457 | 66 | 55 | 1.0 | 4.0 | 0.00 | 0.00 | 0.00 | 63 | 1011.0 |
| 20260901230956 | 66 | 192 | 1.0 | 5.0 | 0.00 | 0.00 | 0.00 | 63 | 1011.0 |
| 20260901225956 | 66 | 227 | 1.0 | 4.0 | 0.00 | 0.00 | 0.00 | 64 | 1011.0 |
| 20260901225527 | 66 | 211 | 3.0 | 3.0 | 0.00 | 0.00 | 0.00 | 64 | 1011.0 |
| 20260901224456 | 66 | 304 | 0.0 | 3.0 | 0.00 | 0.00 | 0.00 | 63 | 1011.0 |
| 20260901223956 | 67 | 309 | 0.0 | 4.0 | 0.00 | 0.00 | 0.00 | 63 | 1011.0 |
| 20260901223456 | 67 | 126 | 0.0 | 5.0 | 0.00 | 0.00 | 0.00 | 63 | 1011.0 |
| 20260901222956 | 67 | 216 | 4.0 | 7.0 | 0.00 | 0.00 | 0.00 | 62 | 1011.0 |
| 20260901222456 | 67 | 248 | 2.0 | 7.0 | 0.00 | 0.00 | 0.00 | 61 | 1011.0 |
| 20260901221956 | 67 | 213 | 4.0 | 6.0 | 0.00 | 0.00 | 0.00 | 61 | 1011.0 |
| 20260901221456 | 68 | 360 | 1.0 | 6.0 | 0.00 | 0.00 | 0.00 | 60 | 1011.0 |
| 20260901220956 | 67 | 220 | 2.0 | 7.0 | 0.00 | 0.00 | 0.00 | 60 | 1011.0 |
| 20260901220457 | 67 | 329 | 1.0 | 7.0 | 0.00 | 0.00 | 0.00 | 60 | 1011.0 |
| 20260901215455 | 68 | 216 | 2.0 | 6.0 | 0.00 | 0.00 | 0.00 | 60 | 1010.9 |
| 20260901214455 | 68 | 190 | 0.0 | 6.0 | 0.00 | 0.00 | 0.00 | 61 | 1010.9 |
| 20260901213955 | 68 | 193 | 3.0 | 6.0 | 0.00 | 0.00 | 0.00 | 60 | 1010.7 |
| 20260901213455 | 68 | 213 | 4.0 | 4.0 | 0.00 | 0.00 | 0.00 | 60 | 1010.7 |
| 20260901212956 | 68 | 254 | 0.0 | 4.0 | 0.00 | 0.00 | 0.00 | 60 | 1010.7 |
| 20260901212456 | 68 | 320 | 0.0 | 4.0 | 0.00 | 0.00 | 0.00 | 60 | 1010.9 |
| 20260901211956 | 68 | 207 | 3.0 | 4.0 | 0.00 | 0.00 | 0.00 | 60 | 1010.9 |
| 20260901211456 | 68 | 295 | 1.0 | 8.0 | 0.00 | 0.00 | 0.00 | 61 | 1010.9 |
| 20260901210956 | 68 | 149 | 1.0 | 8.0 | 0.00 | 0.00 | 0.00 | 60 | 1010.8 |
| 20260901210456 | 68 | 214 | 5.0 | 7.0 | 0.00 | 0.00 | 0.00 | 58 | 1010.8 |
| 20260901205956 | 68 | 238 | 1.0 | 6.0 | 0.00 | 0.00 | 0.00 | 58 | 1010.8 |
| 20260901205455 | 69 | 360 | 2.0 | 3.0 | 0.00 | 0.00 | 0.00 | 58 | 1010.9 |
| 20260901204956 | 69 | 360 | 1.0 | 3.0 | 0.00 | 0.00 | 0.00 | 57 | 1010.9 |
| 20260901204456 | 69 | 360 | 2.0 | 4.0 | 0.00 | 0.00 | 0.00 | 58 | 1010.9 |
| 20260901203955 | 68 | 360 | 0.0 | 6.0 | 0.00 | 0.00 | 0.00 | 59 | 1010.9 |
| 20260901203456 | 68 | 360 | 3.0 | 6.0 | 0.00 | 0.00 | 0.00 | 60 | 1010.9 |
| 20260901202455 | 67 | 189 | 1.0 | 5.0 | 0.00 | 0.00 | 0.00 | 61 | 1011.0 |
| 20260901201955 | 67 | 194 | 2.0 | 7.0 | 0.00 | 0.00 | 0.00 | 60 | 1011.0 |
| 20260901201456 | 67 | 194 | 2.0 | 7.0 | 0.00 | 0.00 | 0.00 | 62 | 1011.0 |
| 20260901200455 | 67 | 163 | 2.0 | 10.0 | 0.00 | 0.00 | 0.00 | 62 | 1011.0 |
| 20260901195955 | 67 | 224 | 5.0 | 10.0 | 0.00 | 0.00 | 0.00 | 61 | 1011.0 |
| 20260901194955 | 69 | 200 | 1.0 | 5.0 | 0.00 | 0.00 | 0.00 | 59 | 1011.0 |
| 20260901194455 | 70 | 228 | 1.0 | 5.0 | 0.00 | 0.00 | 0.00 | 58 | 1011.1 |
| 20260901193955 | 69 | 51 | 0.0 | 7.0 | 0.00 | 0.00 | 0.00 | 60 | 1011.1 |
| 20260901193455 | 69 | 360 | 4.0 | 7.0 | 0.00 | 0.00 | 0.00 | 59 | 1011.1 |
| 20260901192955 | 68 | 360 | 2.0 | 7.0 | 0.00 | 0.00 | 0.00 | 62 | 1011.1 |
| 20260901192455 | 67 | 360 | 5.0 | 7.0 | 0.00 | 0.00 | 0.00 | 63 | 1011.4 |
| 20260901191955 | 68 | 360 | 7.0 | 7.0 | 0.00 | 0.00 | 0.00 | 62 | 1011.4 |
| 20260901191455 | 68 | 360 | 2.0 | 8.0 | 0.00 | 0.00 | 0.00 | 63 | 1011.4 |
| 20260901190955 | 67 | 360 | 5.0 | 8.0 | 0.00 | 0.00 | 0.00 | 63 | 1011.5 |
| 20260901190455 | 67 | 360 | 6.0 | 10.0 | 0.00 | 0.00 | 0.00 | 65 | 1011.5 |
| 20260901185955 | 66 | 360 | 2.0 | 10.0 | 0.00 | 0.00 | 0.00 | 67 | 1011.5 |
| 20260901185454 | 66 | 360 | 5.0 | 7.0 | 0.00 | 0.00 | 0.00 | 68 | 1011.6 |
| 20260901184955 | 66 | 360 | 2.0 | 6.0 | 0.00 | 0.00 | 0.00 | 68 | 1011.6 |
| 20260901183955 | 64 | 360 | 3.0 | 7.0 | 0.00 | 0.00 | 0.00 | 70 | 1011.8 |
| 20260901183455 | 64 | 360 | 3.0 | 9.0 | 0.00 | 0.00 | 0.00 | 71 | 1011.8 |
| 20260901182954 | 64 | 360 | 6.0 | 9.0 | 0.00 | 0.00 | 0.00 | 72 | 1011.8 |
| 20260901182454 | 64 | 360 | 9.0 | 9.0 | 0.00 | 0.00 | 0.00 | 72 | 1011.7 |
| 20260901175954 | 64 | 195 | 4.0 | 7.0 | 0.00 | 0.00 | 0.00 | 73 | 1011.6 |
| 20260901175454 | 65 | 254 | 3.0 | 7.0 | 0.00 | 0.00 | 0.00 | 72 | 1011.6 |
| 20260901174954 | 65 | 196 | 1.0 | 6.0 | 0.00 | 0.00 | 0.00 | 71 | 1011.6 |
| 20260901174455 | 65 | 195 | 3.0 | 7.0 | 0.00 | 0.00 | 0.00 | 70 | 1011.6 |
| 20260901173954 | 65 | 189 | 3.0 | 7.0 | 0.00 | 0.00 | 0.00 | 70 | 1011.5 |
| 20260901173455 | 66 | 224 | 5.0 | 7.0 | 0.00 | 0.00 | 0.00 | 69 | 1011.6 |
| 20260901172955 | 66 | 205 | 0.0 | 9.0 | 0.00 | 0.00 | 0.00 | 70 | 1011.6 |
| 20260901172454 | 66 | 191 | 3.0 | 9.0 | 0.00 | 0.00 | 0.00 | 69 | 1011.6 |
| 20260901171955 | 66 | 161 | 3.0 | 4.0 | 0.00 | 0.00 | 0.00 | 69 | 1011.6 |
| 20260901171454 | 66 | 360 | 2.0 | 6.0 | 0.00 | 0.00 | 0.00 | 73 | 1011.6 |
| 20260901170954 | 64 | 360 | 0.0 | 6.0 | 0.00 | 0.00 | 0.00 | 74 | 1011.5 |
| 20260901170454 | 64 | 360 | 2.0 | 6.0 | 0.00 | 0.00 | 0.00 | 75 | 1011.5 |
| 20260901165954 | 64 | 360 | 3.0 | 6.0 | 0.00 | 0.00 | 0.00 | 76 | 1011.5 |
| 20260901165454 | 63 | 360 | 3.0 | 6.0 | 0.00 | 0.00 | 0.00 | 77 | 1011.6 |
| 20260901164454 | 63 | 360 | 1.0 | 5.0 | 0.00 | 0.00 | 0.00 | 78 | 1011.6 |
| 20260901163454 | 63 | 360 | 1.0 | 5.0 | 0.00 | 0.00 | 0.00 | 79 | 1011.7 |
| 20260901162454 | 62 | 360 | 4.0 | 5.0 | 0.00 | 0.00 | 0.00 | 81 | 1011.9 |
| 20260901161954 | 62 | 360 | 3.0 | 5.0 | 0.00 | 0.00 | 0.00 | 82 | 1011.9 |
| 20260901161454 | 62 | 360 | 1.0 | 5.0 | 0.00 | 0.00 | 0.00 | 82 | 1011.9 |
| 20260901160954 | 62 | 360 | 2.0 | 5.0 | 0.00 | 0.00 | 0.00 | 82 | 1011.9 |
| 20260901160454 | 61 | 360 | 2.0 | 3.0 | 0.00 | 0.00 | 0.00 | 83 | 1011.8 |
| 20260901155454 | 61 | 360 | 0.0 | 1.0 | 0.00 | 0.00 | 0.00 | 84 | 1011.9 |
| 20260901154454 | 61 | 360 | 1.0 | 3.0 | 0.00 | 0.00 | 0.00 | 85 | 1011.9 |
| 20260901153954 | 60 | 360 | 0.0 | 3.0 | 0.00 | 0.00 | 0.00 | 86 | 1011.8 |
| 20260901153454 | 60 | 360 | 0.0 | 3.0 | 0.00 | 0.00 | 0.00 | 86 | 1011.8 |
| 20260901152954 | 60 | 360 | 0.0 | 3.0 | 0.00 | 0.00 | 0.00 | 86 | 1011.8 |
| 20260901152454 | 60 | 360 | 1.0 | 4.0 | 0.00 | 0.00 | 0.00 | 86 | 1011.8 |
| 20260901151953 | 60 | 360 | 0.0 | 4.0 | 0.00 | 0.00 | 0.00 | 86 | 1011.8 |
| 20260901151453 | 60 | 360 | 3.0 | 4.0 | 0.00 | 0.00 | 0.00 | 86 | 1011.8 |
| 20260901150953 | 60 | 360 | 3.0 | 3.0 | 0.00 | 0.00 | 0.00 | 86 | 1011.7 |
| 20260901150453 | 59 | 360 | 0.0 | 2.0 | 0.00 | 0.00 | 0.00 | 86 | 1011.7 |
| 20260901145953 | 59 | 360 | 1.0 | 2.0 | 0.00 | 0.00 | 0.00 | 87 | 1011.7 |
| 20260901145454 | 59 | 360 | 2.0 | 2.0 | 0.00 | 0.00 | 0.00 | 87 | 1011.6 |
| 20260901144954 | 58 | 360 | 0.0 | 0.0 | 0.00 | 0.00 | 0.00 | 87 | 1011.6 |
| 20260901144453 | 58 | 360 | 0.0 | 0.0 | 0.00 | 0.00 | 0.00 | 88 | 1011.6 |
| 20260901143954 | 58 | 360 | 0.0 | 0.0 | 0.00 | 0.00 | 0.00 | 88 | 1011.7 |
| 20260901143453 | 57 | 360 | 0.0 | 0.0 | 0.00 | 0.00 | 0.00 | 88 | 1011.7 |
| 20260901142953 | 57 | 360 | 0.0 | 0.0 | 0.00 | 0.00 | 0.00 | 88 | 1011.7 |
| 20260901142454 | 57 | 346 | 0.0 | 0.0 | 0.00 | 0.00 | 0.00 | 88 | 1011.5 |
| 20260901141953 | 57 | 350 | 0.0 | 0.0 | 0.00 | 0.00 | 0.00 | 89 | 1011.5 |
| 20260901141453 | 56 | 355 | 0.0 | 0.0 | 0.00 | 0.00 | 0.00 | 89 | 1011.5 |
| 20260901140953 | 56 | 355 | 0.0 | 0.0 | 0.00 | 0.00 | 0.00 | 89 | 1011.4 |
| 20260901135953 | 56 | 355 | 0.0 | 0.0 | 0.00 | 0.00 | 0.00 | 89 | 1011.4 |
| 20260901135453 | 56 | 355 | 0.0 | 0.0 | 0.00 | 0.00 | 0.00 | 89 | 1011.2 |
| 20260901134953 | 56 | 355 | 0.0 | 0.0 | 0.00 | 0.00 | 0.00 | 89 | 1011.2 |
| 20260901134453 | 56 | 355 | 0.0 | 0.0 | 0.00 | 0.00 | 0.00 | 89 | 1011.2 |
| 20260901133953 | 56 | 355 | 0.0 | 0.0 | 0.00 | 0.00 | 0.00 | 89 | 1011.2 |
| 20260901133453 | 56 | 355 | 0.0 | 0.0 | 0.00 | 0.00 | 0.00 | 90 | 1011.2 |
| 20260901132953 | 56 | 355 | 0.0 | 0.0 | 0.00 | 0.00 | 0.00 | 90 | 1011.2 |
| 20260901132453 | 56 | 355 | 0.0 | 0.0 | 0.00 | 0.00 | 0.00 | 90 | 1011.2 |
| 20260901131953 | 56 | 355 | 0.0 | 0.0 | 0.00 | 0.00 | 0.00 | 90 | 1011.2 |
| 20260901131453 | 55 | 355 | 0.0 | 0.0 | 0.00 | 0.00 | 0.00 | 90 | 1011.2 |
| 20260901130953 | 55 | 355 | 0.0 | 0.0 | 0.00 | 0.00 | 0.00 | 90 | 1011.2 |
| 20260901130453 | 55 | 355 | 0.0 | 0.0 | 0.00 | 0.00 | 0.00 | 90 | 1011.2 |
| 20260901125953 | 55 | 355 | 0.0 | 0.0 | 0.00 | 0.00 | 0.00 | 90 | 1011.2 |
| 20260901125453 | 55 | 355 | 0.0 | 0.0 | 0.00 | 0.00 | 0.00 | 91 | 1011.2 |
| 20260901124952 | 55 | 355 | 0.0 | 0.0 | 0.00 | 0.00 | 0.00 | 91 | 1011.2 |